KF5JED-13 Weather Reports


Display with metric or nautical units.
time (UTC)temp
F
wind
direction
speed
MPH
gust
MPH
rain 1hr
in
rain 24hr
in
rain mn
in
humidity
%
barometer
mb
20260505124847 54 353 12.0 17.0 0.00 0.00 0.00 53 1008.0
20260505124344 54 351 11.0 16.0 0.00 0.00 0.00 54 1008.1
20260505123839 54 343 15.0 21.0 0.00 0.00 0.00 54 1007.8
20260505123337 54 340 12.0 19.0 0.00 0.00 0.00 54 1007.8
20260505122832 54 2 12.0 16.0 0.00 0.00 0.00 54 1007.7
20260505122330 54 353 12.0 14.0 0.00 0.00 0.00 54 1007.3
20260505121826 54 351 10.0 17.0 0.00 0.00 0.00 54 1007.6
20260505121324 54 15 13.0 19.0 0.00 0.00 0.00 55 1007.2
20260505120820 54 3 12.0 17.0 0.00 0.00 0.00 55 1007.1
20260505120316 55 19 15.0 18.0 0.00 0.00 0.00 55 1007.3
20260505115814 55 8 12.0 19.0 0.00 0.00 0.00 56 1007.3
20260505115312 55 359 14.0 15.0 0.00 0.00 0.00 56 1007.2
20260505114809 55 359 13.0 18.0 0.00 0.00 0.00 56 1007.0
20260505114305 55 1 13.0 16.0 0.00 0.00 0.00 56 1007.2
20260505113757 55 21 15.0 18.0 0.00 0.00 0.00 56 1007.1
20260505113253 55 18 12.0 15.0 0.00 0.00 0.00 57 1007.2
20260505112748 56 354 13.0 22.0 0.00 0.00 0.00 57 1007.0
20260505112246 56 343 11.0 18.0 0.00 0.00 0.00 58 1007.1
20260505111741 56 3 19.0 20.0 0.00 0.00 0.00 58 1007.0
20260505111237 56 8 12.0 14.0 0.00 0.00 0.00 58 1007.0
20260505110733 57 0 11.0 19.0 0.00 0.00 0.00 58 1006.8
20260505110231 57 352 12.0 22.0 0.00 0.00 0.00 58 1006.7
20260505102207 60 329 13.0 21.0 0.00 0.00 0.00 48 1006.2
20260505101705 61 334 15.0 23.0 0.00 0.00 0.00 44 1005.8
20260505101201 62 350 18.0 24.0 0.00 0.00 0.00 41 1005.8
20260505100657 63 328 19.0 26.0 0.00 0.00 0.00 37 1005.6
20260505100154 64 315 13.0 23.0 0.00 0.00 0.00 34 1005.7
20260505095650 65 335 17.0 24.0 0.00 0.00 0.00 30 1005.6
20260505095148 66 318 11.0 19.0 0.00 0.00 0.00 29 1005.3
20260505094643 65 330 8.0 12.0 0.00 0.00 0.00 29 1005.2
20260505094140 64 284 6.0 8.0 0.00 0.00 0.00 31 1005.0
20260505093636 64 275 5.0 9.0 0.00 0.00 0.00 31 1004.8
20260505093134 64 287 4.0 9.0 0.00 0.00 0.00 31 1004.9
20260505092631 64 305 8.0 9.0 0.00 0.00 0.00 31 1005.2
20260505092130 65 305 8.0 10.0 0.00 0.00 0.00 30 1004.9
20260505091626 65 318 5.0 6.0 0.00 0.00 0.00 30 1004.9
20260505091124 65 216 3.0 7.0 0.00 0.00 0.00 30 1004.4
20260505090621 65 222 7.0 8.0 0.00 0.00 0.00 30 1004.2
20260505090119 66 230 4.0 8.0 0.00 0.00 0.00 29 1004.3
20260505085617 67 216 4.0 7.0 0.00 0.00 0.00 29 1004.2
20260505085115 67 233 1.0 4.0 0.00 0.00 0.00 29 1004.2
20260505084612 68 240 3.0 9.0 0.00 0.00 0.00 28 1004.1
20260505084111 68 262 2.0 8.0 0.00 0.00 0.00 28 1004.1
20260505083608 68 222 6.0 9.0 0.00 0.00 0.00 27 1003.9
20260505083104 68 235 6.0 12.0 0.00 0.00 0.00 27 1004.1
20260505082600 68 232 7.0 10.0 0.00 0.00 0.00 27 1004.1
20260505082057 69 234 4.0 8.0 0.00 0.00 0.00 27 1004.0
20260505081553 69 227 8.0 12.0 0.00 0.00 0.00 27 1004.2
20260505081050 69 267 3.0 6.0 0.00 0.00 0.00 27 1004.4
20260505080546 69 232 4.0 7.0 0.00 0.00 0.00 26 1004.3
20260505080044 69 248 3.0 10.0 0.00 0.00 0.00 26 1004.2
20260505075539 70 230 9.0 11.0 0.00 0.00 0.00 25 1004.3
20260505075036 70 221 5.0 11.0 0.00 0.00 0.00 25 1004.3
20260505074533 70 224 8.0 15.0 0.00 0.00 0.00 25 1004.4
20260505074030 70 216 7.0 11.0 0.00 0.00 0.00 25 1004.4
20260505073528 71 221 8.0 17.0 0.00 0.00 0.00 24 1004.2
20260505073026 71 220 8.0 14.0 0.00 0.00 0.00 24 1004.3
20260505072521 71 238 8.0 15.0 0.00 0.00 0.00 24 1004.1
20260505072018 71 225 13.0 17.0 0.00 0.00 0.00 24 1004.1
20260505071513 71 222 9.0 17.0 0.00 0.00 0.00 24 1004.2
20260505071012 71 237 13.0 20.0 0.00 0.00 0.00 25 1004.2
20260505070509 71 229 12.0 16.0 0.00 0.00 0.00 25 1004.3
20260505070005 72 226 9.0 19.0 0.00 0.00 0.00 24 1004.4
20260505065501 71 234 9.0 19.0 0.00 0.00 0.00 24 1004.5
20260505064957 72 226 9.0 17.0 0.00 0.00 0.00 24 1004.3
20260505064454 72 234 9.0 18.0 0.00 0.00 0.00 24 1004.4
20260505063953 72 233 7.0 17.0 0.00 0.00 0.00 24 1004.7
20260505063449 73 249 10.0 17.0 0.00 0.00 0.00 24 1004.3
20260505062945 73 241 9.0 17.0 0.00 0.00 0.00 24 1004.3
20260505062443 73 244 12.0 18.0 0.00 0.00 0.00 24 1004.5
20260505061939 73 223 11.0 22.0 0.00 0.00 0.00 23 1004.5
20260505061438 73 220 17.0 20.0 0.00 0.00 0.00 23 1004.4
20260505060935 73 240 14.0 22.0 0.00 0.00 0.00 23 1004.5
20260505060432 73 225 12.0 18.0 0.00 0.00 0.00 23 1004.5
20260505055928 73 228 11.0 21.0 0.00 0.00 0.00 23 1004.5
20260505055424 73 229 16.0 19.0 0.00 0.00 0.00 23 1004.4
20260505054921 73 226 16.0 18.0 0.00 0.00 0.00 23 1004.4
20260505054418 73 244 14.0 20.0 0.00 0.00 0.00 23 1004.2
20260505053916 73 221 10.0 20.0 0.00 0.00 0.00 23 1004.4
20260505053413 73 230 14.0 19.0 0.00 0.00 0.00 23 1004.4
20260505052910 73 236 14.0 21.0 0.00 0.00 0.00 23 1004.5
20260505052407 73 228 11.0 19.0 0.00 0.00 0.00 23 1004.3
20260505051904 73 224 13.0 21.0 0.00 0.00 0.00 23 1004.5
20260505051401 73 228 10.0 22.0 0.00 0.00 0.00 24 1004.5
20260505050859 73 226 11.0 18.0 0.00 0.00 0.00 24 1004.4
20260505050357 73 224 10.0 19.0 0.00 0.00 0.00 23 1004.5
20260505041325 73 228 10.0 16.0 0.00 0.00 0.00 24 1004.5
20260505040822 74 218 11.0 18.0 0.00 0.00 0.00 24 1004.9
20260505040320 74 229 11.0 19.0 0.00 0.00 0.00 24 1004.7
20260505035816 74 218 13.0 21.0 0.00 0.00 0.00 24 1004.7
20260505035311 74 227 11.0 18.0 0.00 0.00 0.00 24 1004.5
20260505034808 74 234 10.0 23.0 0.00 0.00 0.00 23 1004.5
20260505034300 74 218 7.0 19.0 0.00 0.00 0.00 23 1004.7
20260505033756 74 206 8.0 17.0 0.00 0.00 0.00 23 1004.9
20260505033254 74 229 12.0 17.0 0.00 0.00 0.00 23 1004.7
20260505032752 74 221 9.0 17.0 0.00 0.00 0.00 23 1004.7
20260505032248 74 221 9.0 18.0 0.00 0.00 0.00 23 1004.7
20260505031745 75 232 11.0 15.0 0.00 0.00 0.00 22 1004.7
20260505031241 75 227 14.0 15.0 0.00 0.00 0.00 21 1004.8
20260505030738 75 234 14.0 17.0 0.00 0.00 0.00 21 1004.8
20260505030235 75 233 9.0 15.0 0.00 0.00 0.00 20 1004.7
20260505025730 75 234 11.0 16.0 0.00 0.00 0.00 19 1004.7
20260505025229 75 227 11.0 14.0 0.00 0.00 0.00 18 1004.9
20260505024727 75 213 9.0 14.0 0.00 0.00 0.00 18 1004.8
20260505024224 76 202 9.0 13.0 0.00 0.00 0.00 18 1004.7
20260505023721 77 221 9.0 20.0 0.00 0.00 0.00 17 1004.7
20260505023218 77 228 14.0 16.0 0.00 0.00 0.00 17 1004.5
20260505022716 77 229 12.0 15.0 0.00 0.00 0.00 16 1004.3
20260505022212 77 226 8.0 15.0 0.00 0.00 0.00 16 1004.5
20260505021709 77 233 10.0 16.0 0.00 0.00 0.00 16 1004.5
20260505021206 77 229 18.0 19.0 0.00 0.00 0.00 16 1004.2
20260505020702 78 222 12.0 17.0 0.00 0.00 0.00 16 1004.4
20260505020157 78 231 11.0 16.0 0.00 0.00 0.00 16 1004.3
20260505015655 78 227 16.0 21.0 0.00 0.00 0.00 15 1004.5
20260505015151 78 229 13.0 18.0 0.00 0.00 0.00 15 1004.3
20260505014648 78 222 11.0 15.0 0.00 0.00 0.00 15 1004.3
20260505014145 79 232 10.0 23.0 0.00 0.00 0.00 15 1004.3
20260505013643 79 212 8.0 18.0 0.00 0.00 0.00 15 1004.2
20260505013139 79 224 7.0 15.0 0.00 0.00 0.00 16 1004.1
20260505012638 79 213 8.0 13.0 0.00 0.00 0.00 16 1004.2
20260505012135 80 238 11.0 19.0 0.00 0.00 0.00 16 1004.2
20260505011630 80 230 12.0 19.0 0.00 0.00 0.00 15 1004.0
20260505011128 80 224 12.0 18.0 0.00 0.00 0.00 15 1004.1
20260505010628 80 231 10.0 17.0 0.00 0.00 0.00 15 1004.1
20260505010125 81 223 10.0 15.0 0.00 0.00 0.00 15 1004.1
20260505005621 81 221 15.0 22.0 0.00 0.00 0.00 14 1004.0
20260505005118 81 232 17.0 20.0 0.00 0.00 0.00 14 1004.2
20260505004615 82 245 9.0 18.0 0.00 0.00 0.00 14 1004.2
20260505004112 82 246 11.0 23.0 0.00 0.00 0.00 14 1004.2
20260505003609 82 227 17.0 23.0 0.00 0.00 0.00 14 1004.3
20260505003107 82 221 17.0 18.0 0.00 0.00 0.00 14 1004.3
20260505002602 82 228 17.0 19.0 0.00 0.00 0.00 14 1004.3
20260505002101 82 227 19.0 19.0 0.00 0.00 0.00 14 1004.3
20260505001558 83 229 17.0 20.0 0.00 0.00 0.00 14 1004.4
20260505001055 83 230 15.0 23.0 0.00 0.00 0.00 13 1004.3
20260505000552 83 236 13.0 23.0 0.00 0.00 0.00 13 1004.3
20260505000050 83 227 16.0 24.0 0.00 0.00 0.00 13 1004.2
20260504235546 83 234 7.0 22.0 0.00 0.00 0.00 13 1004.3
20260504235043 84 229 16.0 28.0 0.00 0.00 0.00 13 1004.3
20260504234540 84 234 15.0 21.0 0.00 0.00 0.00 13 1004.4
20260504234037 84 223 13.0 27.0 0.00 0.00 0.00 14 1004.3
20260504233532 84 214 15.0 22.0 0.00 0.00 0.00 16 1004.1
20260504233029 84 233 12.0 20.0 0.00 0.00 0.00 17 1004.2
20260504232526 84 235 10.0 18.0 0.00 0.00 0.00 17 1004.3
20260504232024 84 224 9.0 14.0 0.00 0.00 0.00 20 1004.1
20260504231521 84 226 6.0 13.0 0.00 0.00 0.00 21 1004.2
20260504231017 85 228 10.0 14.0 0.00 0.00 0.00 20 1004.1
20260504230513 84 246 5.0 18.0 0.00 0.00 0.00 20 1004.3
20260504230013 84 246 12.0 15.0 0.00 0.00 0.00 21 1004.2
20260504225509 84 241 10.0 17.0 0.00 0.00 0.00 22 1004.5
20260504225006 85 229 11.0 15.0 0.00 0.00 0.00 21 1004.4
20260504224502 85 253 9.0 24.0 0.00 0.00 0.00 22 1004.5
20260504223959 85 228 13.0 22.0 0.00 0.00 0.00 22 1004.7
20260504223456 86 238 9.0 19.0 0.00 0.00 0.00 21 1004.7
20260504222951 85 226 5.0 12.0 0.00 0.00 0.00 21 1004.7
20260504222449 85 243 9.0 18.0 0.00 0.00 0.00 20 1005.0
20260504221947 86 259 4.0 12.0 0.00 0.00 0.00 19 1004.8
20260504221444 85 299 4.0 13.0 0.00 0.00 0.00 20 1004.9
20260504220941 86 247 12.0 15.0 0.00 0.00 0.00 20 1004.9
20260504220437 86 230 9.0 18.0 0.00 0.00 0.00 20 1004.9
20260504215934 86 213 11.0 16.0 0.00 0.00 0.00 19 1004.9
20260504215431 86 238 9.0 13.0 0.00 0.00 0.00 19 1004.9
20260504214927 85 246 4.0 15.0 0.00 0.00 0.00 20 1005.0
20260504214424 86 250 6.0 19.0 0.00 0.00 0.00 20 1005.1
20260504213920 85 287 6.0 14.0 0.00 0.00 0.00 20 1005.2
20260504213416 85 286 12.0 17.0 0.00 0.00 0.00 20 1005.2
20260504212914 85 234 13.0 22.0 0.00 0.00 0.00 20 1005.2
20260504212409 85 206 16.0 23.0 0.00 0.00 0.00 20 1005.2
20260504211908 85 241 8.0 19.0 0.00 0.00 0.00 21 1005.3
20260504211404 85 226 9.0 17.0 0.00 0.00 0.00 21 1005.8
20260504210901 85 233 12.0 19.0 0.00 0.00 0.00 21 1005.7
20260504210358 85 232 10.0 20.0 0.00 0.00 0.00 21 1005.8
20260504205855 85 235 11.0 23.0 0.00 0.00 0.00 20 1005.9
20260504205353 85 230 13.0 19.0 0.00 0.00 0.00 20 1006.0
20260504204851 85 234 6.0 12.0 0.00 0.00 0.00 23 1005.9
20260504204349 84 239 8.0 14.0 0.00 0.00 0.00 22 1006.0
20260504203848 84 227 13.0 21.0 0.00 0.00 0.00 22 1006.1
20260504203344 85 225 12.0 19.0 0.00 0.00 0.00 22 1006.0
20260504202840 85 322 3.0 9.0 0.00 0.00 0.00 23 1006.2
20260504202338 86 224 7.0 15.0 0.00 0.00 0.00 23 1006.1
20260504201834 85 230 8.0 15.0 0.00 0.00 0.00 23 1006.4
20260504201332 85 225 14.0 22.0 0.00 0.00 0.00 22 1006.4
20260504200829 84 236 11.0 17.0 0.00 0.00 0.00 22 1006.6
20260504200325 84 247 6.0 21.0 0.00 0.00 0.00 23 1006.6
20260504195822 84 231 10.0 13.0 0.00 0.00 0.00 23 1006.7
20260504195317 84 229 10.0 15.0 0.00 0.00 0.00 23 1006.7
20260504194814 84 234 10.0 18.0 0.00 0.00 0.00 23 1006.6
20260504194310 83 247 8.0 15.0 0.00 0.00 0.00 23 1006.9
20260504193807 83 227 13.0 14.0 0.00 0.00 0.00 24 1007.0
20260504193304 83 227 8.0 16.0 0.00 0.00 0.00 25 1007.1
20260504192803 84 308 4.0 12.0 0.00 0.00 0.00 26 1007.1
20260504192300 83 274 6.0 11.0 0.00 0.00 0.00 25 1007.1
20260504191759 82 238 7.0 14.0 0.00 0.00 0.00 26 1007.0
20260504191256 83 232 8.0 10.0 0.00 0.00 0.00 25 1007.1
20260504190751 83 303 10.0 18.0 0.00 0.00 0.00 25 1007.2
20260504190248 83 271 2.0 7.0 0.00 0.00 0.00 26 1007.4
20260504185744 82 226 6.0 15.0 0.00 0.00 0.00 26 1007.3
20260504185241 83 232 8.0 13.0 0.00 0.00 0.00 26 1007.4
20260504184737 83 295 8.0 18.0 0.00 0.00 0.00 25 1007.7
20260504184233 83 295 6.0 14.0 0.00 0.00 0.00 26 1007.6
20260504183729 82 286 4.0 13.0 0.00 0.00 0.00 26 1007.8
20260504183226 83 239 8.0 19.0 0.00 0.00 0.00 25 1008.0
20260504182724 83 206 4.0 17.0 0.00 0.00 0.00 25 1007.8
20260504182221 82 267 6.0 14.0 0.00 0.00 0.00 25 1008.1
20260504181719 82 248 4.0 16.0 0.00 0.00 0.00 26 1008.2
20260504181216 82 237 6.0 15.0 0.00 0.00 0.00 25 1008.3
20260504180715 82 278 12.0 14.0 0.00 0.00 0.00 24 1008.4
20260504180213 82 313 3.0 12.0 0.00 0.00 0.00 25 1008.6
20260504175710 82 289 12.0 17.0 0.00 0.00 0.00 24 1008.6
20260504175207 82 294 12.0 19.0 0.00 0.00 0.00 26 1008.9
20260504174705 82 231 17.0 18.0 0.00 0.00 0.00 27 1008.7
20260504174203 81 235 13.0 17.0 0.00 0.00 0.00 27 1008.9
20260504173659 81 233 6.0 17.0 0.00 0.00 0.00 28 1008.9
20260504173156 81 323 15.0 21.0 0.00 0.00 0.00 26 1008.9
20260504172652 81 292 5.0 15.0 0.00 0.00 0.00 28 1009.2
20260504172149 81 230 14.0 16.0 0.00 0.00 0.00 27 1009.1
20260504171645 80 220 13.0 16.0 0.00 0.00 0.00 27 1009.0
20260504171143 81 240 7.0 16.0 0.00 0.00 0.00 28 1009.0
20260504170639 81 227 14.0 15.0 0.00 0.00 0.00 27 1009.2
20260504170137 81 286 8.0 15.0 0.00 0.00 0.00 26 1009.2
20260504151022 72 243 3.0 14.0 0.00 0.00 0.00 44 1009.7
20260504150520 71 243 5.0 11.0 0.00 0.00 0.00 45 1009.9
20260504140940 64 240 8.0 13.0 0.00 0.00 0.00 54 1010.1
20260504140436 64 252 11.0 14.0 0.00 0.00 0.00 55 1009.9
20260504130401 59 221 9.0 11.0 0.00 0.00 0.00 62 1009.1